Time,TemperatureF,DewpointF,PressureIn,WindDirection,WindDirectionDegrees,WindSpeedMPH,WindSpeedGustMPH,Humidity,HourlyPrecipIn,Conditions,Clouds,dailyrainin,SoftwareType,DateUTC
2013-07-22 00:07:00,58.6,44.8,29.90,WNW,292,1.1,-999.0,60,-99.99,,,0.00,Acu-Link.com,2013-07-22 06:07:00,
2013-07-22 00:22:00,56.8,46.4,29.90,ENE,67,1.7,-999.0,68,-99.99,,,0.00,Acu-Link.com,2013-07-22 06:22:00,
2013-07-22 00:37:00,57.2,45.5,29.91,North,0,3.2,-999.0,65,-99.99,,,0.00,Acu-Link.com,2013-07-22 06:37:00,
2013-07-22 00:52:00,58.1,45.1,29.92,SSW,202,1.1,-999.0,62,-99.99,,,0.00,Acu-Link.com,2013-07-22 06:52:00,
2013-07-22 01:08:00,56.3,43.9,29.91,NNE,22,4.7,-999.0,63,-99.99,,,0.00,Acu-Link.com,2013-07-22 07:08:00,
2013-07-22 01:23:00,56.7,43.8,29.92,NW,315,1.7,-999.0,62,-99.99,,,0.00,Acu-Link.com,2013-07-22 07:23:00,
2013-07-22 01:38:00,54.5,44.2,29.92,West,270,0.0,-999.0,68,-99.99,,,0.00,Acu-Link.com,2013-07-22 07:38:00,
2013-07-22 01:54:00,52.9,42.6,29.93,SSW,202,0.0,-999.0,68,-99.99,,,0.00,Acu-Link.com,2013-07-22 07:54:00,
2013-07-22 02:10:00,51.3,44.3,29.92,NW,315,1.1,-999.0,77,-99.99,,,0.00,Acu-Link.com,2013-07-22 08:10:00,
2013-07-22 02:25:00,50.9,44.0,29.92,NNE,22,2.2,-999.0,77,-99.99,,,0.00,Acu-Link.com,2013-07-22 08:25:00,
2013-07-22 02:40:00,50.5,44.2,29.93,NE,45,1.7,-999.0,79,-99.99,,,0.00,Acu-Link.com,2013-07-22 08:40:00,
2013-07-22 02:55:00,52.7,43.2,29.94,NNE,22,3.2,-999.0,70,-99.99,,,0.00,Acu-Link.com,2013-07-22 08:55:00,
2013-07-22 03:10:00,50.4,41.7,29.94,NE,45,2.2,-999.0,72,-99.99,,,0.00,Acu-Link.com,2013-07-22 09:10:00,
2013-07-22 03:26:00,49.6,42.0,29.95,South,180,0.0,-999.0,75,-99.99,,,0.00,Acu-Link.com,2013-07-22 09:26:00,
2013-07-22 03:41:00,48.2,45.1,29.96,ENE,67,0.0,-999.0,89,-99.99,,,0.00,Acu-Link.com,2013-07-22 09:41:00,
2013-07-22 07:46:00,58.6,47.3,30.03,ENE,67,2.7,-999.0,66,-99.99,,,0.00,Acu-Link.com,2013-07-22 13:46:00,
2013-07-22 08:01:00,62.4,49.2,30.02,East,90,3.7,-999.0,62,-99.99,,,0.00,Acu-Link.com,2013-07-22 14:01:00,
2013-07-22 08:16:00,64.8,49.7,30.03,East,90,1.7,-999.0,58,-99.99,,,0.00,Acu-Link.com,2013-07-22 14:16:00,
2013-07-22 08:32:00,69.6,50.7,30.04,NNE,22,3.2,-999.0,51,-99.99,,,0.00,Acu-Link.com,2013-07-22 14:32:00,
2013-07-22 08:50:00,70.9,50.8,30.02,ENE,67,3.2,-999.0,49,-99.99,,,0.00,Acu-Link.com,2013-07-22 14:50:00,
2013-07-22 09:05:00,74.5,52.3,30.03,SSE,157,0.0,-999.0,46,-99.99,,,0.00,Acu-Link.com,2013-07-22 15:05:00,
2013-07-22 09:21:00,66.9,49.2,30.02,SSE,157,2.2,-999.0,53,-99.99,,,0.00,Acu-Link.com,2013-07-22 15:21:00,
2013-07-22 09:37:00,69.6,50.7,30.01,South,180,2.2,-999.0,51,-99.99,,,0.00,Acu-Link.com,2013-07-22 15:37:00,
2013-07-22 09:52:00,70.0,48.8,30.01,NNW,337,1.7,-999.0,47,-99.99,,,0.00,Acu-Link.com,2013-07-22 15:52:00,
2013-07-22 10:07:00,72.0,51.8,29.99,SSW,202,0.0,-999.0,49,-99.99,,,0.00,Acu-Link.com,2013-07-22 16:07:00,
2013-07-22 10:22:00,73.2,52.3,29.99,SSW,202,3.2,-999.0,48,-99.99,,,0.00,Acu-Link.com,2013-07-22 16:22:00,
2013-07-22 10:38:00,73.9,50.6,29.99,SSW,202,1.7,-999.0,44,-99.99,,,0.00,Acu-Link.com,2013-07-22 16:38:00,
2013-07-22 10:53:00,75.4,53.2,29.98,South,180,4.2,-999.0,46,-99.99,,,0.00,Acu-Link.com,2013-07-22 16:53:00,
2013-07-22 11:08:00,76.8,52.0,29.98,SSE,157,2.2,-999.0,42,-99.99,,,0.00,Acu-Link.com,2013-07-22 17:08:00,
2013-07-22 11:23:00,79.0,53.3,29.99,SSW,202,2.2,-999.0,41,-99.99,,,0.00,Acu-Link.com,2013-07-22 17:23:00,
2013-07-22 11:39:00,78.8,51.7,29.97,South,180,1.7,-999.0,39,-99.99,,,0.00,Acu-Link.com,2013-07-22 17:39:00,
2013-07-22 11:54:00,79.9,55.4,29.96,NNW,337,2.7,-999.0,43,-99.99,,,0.00,Acu-Link.com,2013-07-22 17:54:00,
2013-07-22 12:22:00,80.6,54.0,29.96,South,180,3.7,-999.0,40,-99.99,,,0.00,Acu-Link.com,2013-07-22 18:22:00,
2013-07-22 14:24:00,80.1,48.4,29.90,East,90,3.7,-999.0,33,-99.99,,,0.00,Acu-Link.com,2013-07-22 20:24:00,
2013-07-22 14:58:00,75.9,49.8,29.88,ESE,112,4.2,-999.0,40,-99.99,,,0.00,Acu-Link.com,2013-07-22 20:58:00,
2013-07-22 15:14:00,75.9,49.8,29.88,South,180,4.7,-999.0,40,-99.99,,,0.00,Acu-Link.com,2013-07-22 21:14:00,
2013-07-22 15:59:00,79.9,45.7,29.87,SSE,157,3.7,-999.0,30,-99.99,,,0.00,Acu-Link.com,2013-07-22 21:59:00,
2013-07-22 18:53:00,79.7,47.2,29.84,South,180,2.7,-999.0,32,-99.99,,,0.00,Acu-Link.com,2013-07-23 00:53:00,
2013-07-22 19:09:00,77.5,47.7,29.84,SW,225,1.7,-999.0,35,-99.99,,,0.00,Acu-Link.com,2013-07-23 01:09:00,
2013-07-22 19:24:00,77.2,50.3,29.86,East,90,2.2,-999.0,39,-99.99,,,0.00,Acu-Link.com,2013-07-23 01:24:00,
2013-07-22 19:39:00,75.0,46.2,29.84,SSW,202,3.7,-999.0,36,-99.99,,,0.00,Acu-Link.com,2013-07-23 01:39:00,
2013-07-22 19:54:00,73.8,45.2,29.84,West,270,0.0,-999.0,36,-99.99,,,0.00,Acu-Link.com,2013-07-23 01:54:00,
2013-07-22 20:09:00,71.2,45.6,29.85,SSE,157,0.0,-999.0,40,-99.99,,,0.00,Acu-Link.com,2013-07-23 02:09:00,
2013-07-22 20:25:00,69.3,42.6,29.85,West,270,0.0,-999.0,38,-99.99,,,0.00,Acu-Link.com,2013-07-23 02:25:00,
2013-07-22 20:55:00,66.0,44.0,29.86,West,270,2.2,-999.0,45,-99.99,,,0.00,Acu-Link.com,2013-07-23 02:55:00,
2013-07-22 21:55:00,61.7,44.9,29.90,SW,225,4.2,-999.0,54,-99.99,,,0.00,Acu-Link.com,2013-07-23 03:55:00,
2013-07-22 22:11:00,61.7,44.4,29.91,West,270,2.7,-999.0,53,-99.99,,,0.00,Acu-Link.com,2013-07-23 04:11:00,
2013-07-22 22:27:00,61.0,44.2,29.91,SW,225,3.7,-999.0,54,-99.99,,,0.00,Acu-Link.com,2013-07-23 04:27:00,
2013-07-22 22:42:00,59.7,43.5,29.92,SW,225,1.1,-999.0,55,-99.99,,,0.00,Acu-Link.com,2013-07-23 04:42:00,
2013-07-22 22:59:00,57.4,41.4,29.93,NNE,22,0.0,-999.0,55,-99.99,,,0.00,Acu-Link.com,2013-07-23 04:59:00,
2013-07-22 23:41:00,56.8,41.7,29.95,NNW,337,0.0,-999.0,57,-99.99,,,0.00,Acu-Link.com,2013-07-23 05:41:00,